Showing default

TIANQI 22, 57793

Orbit data source: Space-Track

TIANQI 22, 57793 is a payload satellite owned by Guodian Gaokeji (CN) in LEO that was launched on Tue, 05 Sep 2023 UTC via a GUSHENXING 1 launch vehicle from the Yellow Sea Launch Area, China (YSLA). Payload-class satellites include a variety of spacecraft equipped with specific instruments for various scientific and technological missions. These include communications satellites like Starlink; space stations such as the ISS; scientific satellites like the Hubble; Earth observation satellites from companies like Planet Labs, Umbra, and HawkEye 360; GPS; miniature CubeSats for education and research; and military/defense satellites.

Loading next visibility...
Identifier
57793, 2023-135B
Orbit
LEO
Country
Flag of CNCN / PRC
Related business
Manufacturer
Shanghai ASES
Mission
Operational Commercial Communications
Bus & Motor
STARLIGHTB, Unknown motor
Mass
40 kg wet, ~40 kg dry
Launch date (UTC)
2023-09-05 (3 years ago)
Launch vehicle
GUSHENXING 1
Launch site
Yellow Sea Launch Area, China (YSLA)
Object type
Payload
Rocket body
Debris
Shape & HBR
Box, 0.3 m
Radar Cross Section
0.195 m², Medium (>0.1 m² and < 1m²)

Expand to show TLE details & history
Last TLE update: 2 days ago

TLE from 2 days ago
0 TIANQI 22
1 57793U 23135B   26171.41305913 -.00000201  00000-0 -18343-4 0  9996
2 57793  49.9670 138.9413 0013254 273.9289  86.0108 14.23242360145080
Epoch: 2026-06-20T09:54Z
TLE epoch observation values (Epoch: 2026-06-20T09:54:48.308Z)
Latitude
-0.00003°
Longitude
81.61195°
Altitude
814.283 km
Speed
7.448 km/s
True Right ascension
09h 15m 45s
True Declination
0° 00' 00"
Sunlit
Object was in daylight at epoch
Visualization orbit readout
Latitude
Unknown
Longitude
Unknown
Altitude
Unknown
Speed
Unknown
Apparent Right ascension
Unknown
Apparent Declination
Unknown
Sunlit
N/A
Visualization observer readout
Local Sidereal Time
21:23:56
Azimuth
Unknown
Elevation
Unknown
Doppler factor
Unknown
Orbital elements
Apogee altitude
824.685 km
Perigee altitude
805.617 km
Semi-major axis
7,193.288 km
Eccentricity
0.00133
Inclination
49.967°
RAAN
138.9413°
Arg. of periapsis
273.9289°
True anomaly
86.16233°
Mean anomaly
86.0108°
Eccentric anomaly
86.08656°
Mean motion
3.55756 °/min
Orbital period
101.19 mins
BSTAR
-0.000018343
Loading maneuver chart data...
Computing Atmospheric mass density...
Loading historical data...
Loading historical data...
Loading historical data...
Loading historical data...
Loading historical data...
Loading historical data...
Loading historical data...
Other satellites on launch #135 in the year 2023 (2023-09-05 UTC)

Documentation

Showing up to 5 results
|